Wind_Speed
26 26 25 26 27 28 29 30 31 31 32 32 32 33 33 33 34 34 35 35 35 35 36 37 39 39 41 42 42 42 43 43 44 45 44 45 45 46 46 45 45 46 46 46
26 26 26 27 27 28 28 29 29 30 31 31 31 32 32 32 33 33 34 34 34 35 35 37 38 39 40 41 42 42 43 43 43 45 45 45 46 47 47 47 47 47 47 47
25 26 26 26 27 27 27 27 28 29 30 31 31 31 31 30 32 33 33 34 33 34 35 36 37 38 39 41 42 43 43 43 43 44 45 46 46 47 48 48 48 48 48 48
24 25 25 25 26 26 26 26 26 27 28 29 29 31 29 29 30 32 33 34 33 33 35 36 36 37 38 40 42 43 43 43 43 44 44 45 46 46 47 48 48 47 48 49
23 25 25 25 25 26 26 26 27 27 27 28 28 30 29 29 30 31 31 32 33 33 34 35 36 36 37 39 40 42 42 42 43 44 44 44 45 46 46 46 46 46 46 48
23 24 24 24 24 25 26 26 26 26 26 27 26 28 29 29 29 30 31 32 33 34 34 35 36 36 36 37 38 39 41 41 42 43 43 43 43 43 44 45 46 47 47 46
22 22 22 23 24 24 24 25 25 26 26 26 26 27 27 27 28 28 29 31 32 33 33 34 35 36 36 36 37 37 38 39 39 40 40 41 42 42 42 43 44 45 45 45
21 21 21 22 22 23 23 23 24 26 27 26 26 27 26 26 25 26 27 28 29 30 31 33 34 36 36 36 37 37 38 38 38 38 38 39 40 41 42 42 43 44 44 43
20 20 19 20 21 22 22 22 23 24 26 26 26 26 26 25 25 26 26 26 28 29 30 31 33 34 35 36 37 37 37 36 36 37 37 38 40 40 41 42 42 42 43 42
20 20 19 19 20 21 22 22 22 23 25 25 25 25 24 24 25 25 26 26 27 28 29 30 31 31 32 33 34 35 35 35 36 36 36 37 38 39 40 40 40 40 41 42
20 20 20 20 20 21 22 22 22 23 24 25 25 24 23 24 25 26 27 27 27 28 28 29 29 29 29 30 30 32 33 34 34 35 36 36 37 37 37 37 38 38 38 39
20 20 20 20 21 21 22 22 23 24 25 26 26 25 24 25 25 26 27 27 27 28 28 28 29 29 28 29 29 30 31 32 33 34 34 35 35 36 35 35 35 36 36 37
20 21 22 21 21 21 22 21 22 24 26 26 26 25 25 25 25 26 27 27 27 27 27 28 28 29 28 28 28 28 29 30 31 32 33 33 34 34 33 32 32 34 35 36
20 21 21 21 21 21 21 22 22 23 25 25 25 24 24 24 26 26 26 26 27 27 27 28 28 28 28 27 27 28 28 29 30 30 31 32 32 32 33 33 33 33 33 34
21 21 21 21 21 21 21 22 23 24 24 25 23 23 23 25 26 25 25 26 26 26 26 26 27 28 28 27 27 27 28 28 29 29 30 31 31 31 32 32 32 33 33 34
21 22 22 21 21 22 22 21 22 23 24 24 24 23 23 24 25 25 25 25 25 25 25 26 26 26 27 27 27 27 28 28 28 29 29 29 29 30 30 31 32 33 33 33
21 22 23 22 22 23 22 21 22 22 23 23 24 22 23 23 24 24 24 24 24 24 25 25 25 26 26 26 27 27 28 28 28 29 29 29 30 30 31 32 32 32 33 33
21 21 23 23 23 23 22 21 21 22 21 23 23 23 23 23 23 23 24 23 23 24 24 24 24 25 25 25 26 26 27 28 28 29 30 30 30 30 31 31 31 31 32 32
21 22 22 23 24 23 21 21 22 22 21 22 23 22 23 22 22 22 22 23 24 24 24 24 24 25 25 25 26 26 27 27 28 29 29 29 30 31 31 30 30 30 30 30
21 21 22 23 25 24 22 22 22 23 22 22 22 23 22 23 22 22 22 23 24 24 24 24 24 24 25 25 25 25 25 26 27 28 29 29 29 30 30 30 30 30 30 29
21 22 22 23 24 23 22 22 22 23 22 22 22 22 22 22 22 22 23 23 24 25 24 24 23 23 23 23 24 24 25 25 26 27 28 28 28 29 29 29 29 29 29 28
22 22 22 23 23 23 22 22 21 22 22 22 22 22 22 21 21 22 23 24 24 24 24 24 23 22 23 23 24 24 25 25 26 26 27 26 26 27 27 28 27 27 27 27
23 23 23 23 23 23 22 22 22 22 22 22 22 23 22 22 22 22 23 24 23 24 24 24 23 23 23 23 24 24 24 25 25 26 26 26 26 26 25 26 25 25 25 25
24 24 24 24 23 23 22 22 22 22 22 22 22 23 22 22 22 23 23 23 23 24 24 24 24 24 24 24 24 24 24 24 25 25 25 24 24 24 24 23 23 23 22 22
24 24 24 24 23 23 22 22 23 23 22 23 23 23 23 23 23 23 23 23 23 24 24 23 24 24 24 24 23 24 23 24 23 23 23 22 22 22 22 21 21 20 20 19
23 23 24 23 22 23 21 22 22 23 22 22 22 23 23 23 23 24 23 23 24 24 24 24 24 24 24 24 24 23 23 23 23 22 21 20 20 19 19 18 17 17 17 16
Wind_Direction
266 265 265 266 267 268 267 265 263 261 261 261 261 261 261 259 256 255 255 256 256 255 257 257 257 256 255 255 256 256 257 257 257 258 258 257 258 259 261 262 263 264 264 265
267 267 268 268 268 269 269 266 265 263 262 263 262 262 261 259 257 257 257 257 257 256 258 259 259 258 257 256 256 257 257 258 258 259 259 258 259 259 261 262 264 264 265 265
267 268 268 268 268 268 268 267 267 268 265 265 264 262 261 259 258 258 259 259 259 259 259 259 260 259 257 256 256 257 257 258 259 259 260 260 260 261 261 262 264 265 265 265
270 268 268 267 267 267 266 266 267 267 266 265 263 263 261 262 260 259 260 261 262 262 262 261 261 260 258 256 256 256 257 258 259 260 260 261 261 262 263 263 264 265 265 265
274 272 270 268 266 265 266 266 266 264 264 264 264 266 264 265 263 261 263 263 264 266 265 263 262 261 260 259 258 257 258 258 260 261 261 261 262 262 263 263 263 265 265 266
277 275 272 269 266 266 266 266 266 264 263 263 264 266 266 267 266 265 264 266 267 268 267 265 263 263 262 262 261 261 260 260 261 261 261 262 262 264 265 265 264 264 265 265
280 277 273 270 268 266 266 266 266 265 264 264 263 265 267 269 268 268 268 268 268 268 268 267 266 265 266 265 264 264 263 263 263 262 261 262 263 264 266 266 266 265 265 264
286 282 276 270 267 266 265 265 265 265 265 266 265 266 268 269 269 270 271 271 270 270 269 269 269 268 268 267 265 265 264 264 263 263 262 262 264 265 266 267 267 266 264 264
286 284 280 274 269 267 264 264 264 265 267 268 270 268 268 270 272 273 274 274 272 270 270 271 271 271 270 270 268 266 265 264 264 264 265 264 265 267 267 267 267 266 264 264
285 284 283 280 276 270 267 266 268 267 267 269 271 272 273 271 271 273 275 275 273 273 272 273 273 273 272 272 271 267 264 263 264 264 266 267 268 268 268 267 267 266 266 266
286 284 284 281 278 275 270 269 269 270 268 269 271 273 275 276 275 276 277 278 276 274 273 273 273 273 272 271 270 268 264 264 264 265 266 267 268 269 269 268 268 267 266 266
288 285 283 283 281 279 275 272 270 271 272 272 272 272 274 276 277 279 279 278 277 275 274 273 272 271 270 269 269 269 265 264 264 265 267 268 269 270 270 270 270 269 268 269
289 287 286 284 282 280 277 274 272 272 273 272 273 274 274 275 277 279 280 279 278 276 274 273 272 271 269 269 269 268 267 265 265 266 267 269 270 271 270 269 270 272 271 270
288 287 287 288 287 284 280 276 273 274 275 276 275 275 274 275 276 278 280 280 278 275 273 272 272 271 269 269 268 267 266 267 267 268 270 271 271 270 269 270 271 273 272 271
288 285 285 286 286 284 281 279 275 275 277 278 279 277 275 275 276 279 281 281 279 277 275 274 272 270 269 268 267 267 267 269 270 272 273 272 271 271 270 271 272 273 274 273
288 285 283 283 285 284 282 282 280 278 278 278 279 279 279 278 279 280 280 280 279 279 277 276 273 272 270 269 268 268 269 271 272 273 274 274 272 272 272 272 273 273 273 273
288 287 285 284 285 284 284 285 284 282 280 279 280 281 279 279 279 280 281 281 280 281 281 279 277 274 272 271 271 270 271 272 273 274 274 273 273 273 273 273 273 273 274 275
291 290 288 287 287 285 289 288 284 282 282 281 279 280 280 280 281 282 281 281 282 283 283 282 280 278 276 274 273 273 273 273 275 276 275 273 274 274 274 274 275 275 275 276
291 290 289 289 289 290 290 289 287 284 282 283 281 279 279 281 282 284 284 283 283 283 284 283 282 281 280 278 277 277 277 277 278 277 276 276 275 275 276 276 276 276 277 277
292 290 289 289 289 292 295 291 288 286 285 285 285 283 281 281 282 284 284 284 283 284 285 285 284 283 282 280 280 280 280 281 281 281 279 278 277 275 274 275 275 276 277 276
292 291 291 291 290 291 295 294 291 288 289 286 286 285 283 283 284 284 283 282 282 282 284 285 285 285 284 283 283 283 282 282 283 284 283 281 279 277 275 274 276 276 276 276
291 292 292 291 290 293 295 292 292 292 288 286 285 285 285 285 284 284 283 282 281 282 282 283 283 285 286 287 287 285 284 284 285 285 285 283 280 278 276 275 276 277 278 278
291 290 290 291 292 293 290 291 291 290 290 288 286 285 285 284 285 285 284 283 283 282 283 282 282 284 287 289 288 286 285 286 286 286 286 283 281 279 278 276 275 276 278 278
289 287 287 289 292 292 289 289 291 291 291 290 289 289 286 284 285 285 284 283 283 283 284 284 284 285 287 289 289 288 287 287 287 287 287 285 282 278 276 276 275 276 276 276
286 285 285 288 290 290 289 289 289 289 289 290 290 290 289 285 283 285 285 283 285 285 284 284 284 284 287 290 290 290 288 287 288 288 286 284 282 280 277 276 276 275 275 275
286 286 285 287 288 288 287 287 288 289 290 292 292 292 290 286 284 284 284 284 284 285 284 284 284 285 287 288 290 290 290 289 287 286 284 284 282 280 277 275 273 273 278 277
Height
5683 5684 5684 5684 5684 5684 5684 5684 5684 5685 5685 5686 5686 5686 5688 5687 5688 5689 5690 5691 5692 5693 5694 5695 5696 5696 5697 5698 5699 5700 5701 5702 5703 5704 5705 5707 5708 5709 5709 5710 5710 5711 5711 5711
5677 5677 5677 5676 5676 5676 5676 5676 5676 5677 5677 5677 5678 5678 5679 5679 5680 5681 5682 5683 5683 5684 5685 5685 5686 5686 5687 5688 5689 5690 5691 5691 5692 5693 5694 5696 5697 5697 5698 5698 5699 5699 5699 5699
5670 5671 5670 5669 5669 5669 5669 5669 5669 5669 5669 5669 5669 5670 5671 5671 5671 5672 5673 5674 5675 5675 5676 5676 5677 5677 5677 5677 5678 5679 5680 5681 5681 5682 5683 5684 5685 5686 5686 5687 5687 5687 5687 5687
5663 5663 5662 5662 5661 5661 5661 5661 5661 5661 5661 5661 5662 5662 5664 5664 5664 5664 5665 5665 5666 5666 5667 5667 5667 5667 5667 5667 5667 5668 5669 5670 5671 5671 5672 5672 5673 5674 5675 5675 5675 5674 5675 5675
5656 5656 5655 5655 5655 5654 5654 5654 5654 5654 5654 5654 5655 5654 5656 5656 5656 5657 5657 5657 5657 5657 5657 5657 5657 5657 5657 5656 5657 5657 5658 5659 5660 5660 5661 5661 5662 5662 5662 5662 5663 5663 5662 5662
5650 5649 5648 5648 5648 5647 5647 5647 5647 5646 5646 5647 5648 5648 5648 5648 5649 5649 5649 5648 5648 5648 5648 5648 5648 5647 5647 5647 5647 5647 5647 5648 5648 5649 5649 5650 5651 5651 5651 5651 5651 5651 5651 5651
5644 5643 5642 5641 5641 5641 5641 5641 5641 5639 5639 5640 5641 5640 5641 5641 5641 5641 5640 5640 5639 5639 5639 5639 5638 5638 5637 5637 5637 5637 5637 5637 5638 5638 5639 5639 5639 5639 5639 5639 5639 5639 5639 5639
5638 5637 5636 5635 5635 5635 5634 5635 5635 5634 5633 5633 5633 5633 5634 5634 5633 5632 5632 5631 5631 5631 5630 5630 5629 5628 5628 5627 5627 5627 5627 5627 5627 5628 5628 5628 5628 5628 5628 5628 5627 5628 5628 5628
5632 5632 5631 5629 5629 5629 5628 5628 5628 5627 5626 5626 5626 5626 5627 5626 5626 5625 5624 5623 5623 5622 5622 5621 5620 5619 5618 5617 5617 5617 5617 5617 5617 5617 5617 5617 5617 5617 5617 5616 5616 5616 5617 5617
5626 5626 5625 5624 5623 5623 5623 5622 5622 5621 5619 5619 5619 5620 5620 5619 5618 5618 5617 5616 5615 5614 5613 5612 5611 5610 5609 5608 5607 5607 5607 5607 5607 5607 5607 5607 5607 5606 5606 5605 5605 5605 5606 5606
5621 5620 5620 5619 5617 5617 5617 5617 5615 5614 5614 5613 5612 5615 5613 5611 5611 5610 5609 5607 5606 5605 5604 5603 5602 5601 5600 5599 5598 5597 5597 5597 5597 5598 5598 5597 5597 5596 5595 5595 5595 5595 5595 5595
5615 5614 5613 5613 5612 5610 5610 5610 5609 5609 5607 5606 5605 5610 5606 5604 5603 5602 5601 5599 5598 5597 5596 5594 5594 5593 5591 5591 5590 5589 5588 5588 5588 5588 5588 5587 5587 5586 5586 5585 5585 5585 5585 5584
5610 5609 5608 5607 5608 5605 5603 5603 5602 5601 5600 5599 5599 5603 5599 5597 5596 5594 5593 5591 5589 5589 5588 5586 5585 5584 5583 5582 5581 5581 5580 5580 5579 5579 5578 5578 5577 5577 5576 5576 5576 5575 5574 5574
5604 5603 5602 5602 5599 5598 5597 5597 5596 5594 5593 5592 5593 5594 5592 5590 5588 5586 5585 5583 5581 5580 5579 5578 5577 5576 5575 5574 5573 5573 5572 5572 5571 5570 5569 5569 5568 5567 5567 5566 5566 5565 5564 5564
5597 5597 5596 5594 5593 5591 5591 5590 5589 5588 5587 5586 5586 5585 5585 5582 5580 5579 5577 5575 5573 5572 5571 5569 5568 5567 5567 5566 5565 5565 5564 5564 5563 5562 5561 5560 5559 5558 5558 5557 5557 5556 5555 5554
5591 5590 5589 5588 5587 5585 5584 5584 5582 5581 5580 5579 5578 5578 5577 5574 5572 5571 5569 5567 5566 5564 5563 5562 5560 5559 5559 5558 5557 5557 5556 5555 5554 5553 5552 5551 5550 5550 5549 5549 5548 5547 5546 5544
5585 5583 5582 5582 5581 5578 5578 5578 5576 5575 5573 5572 5570 5571 5569 5567 5565 5563 5562 5560 5558 5557 5555 5554 5553 5552 5551 5550 5549 5549 5548 5547 5546 5545 5544 5543 5542 5541 5540 5539 5538 5537 5536 5535
5579 5577 5575 5574 5574 5572 5575 5571 5569 5567 5567 5565 5563 5563 5561 5560 5558 5556 5555 5553 5551 5550 5548 5547 5545 5544 5543 5542 5541 5540 5539 5538 5537 5536 5535 5533 5532 5531 5530 5529 5529 5528 5526 5525
5573 5571 5569 5568 5566 5565 5567 5564 5562 5560 5560 5558 5556 5555 5554 5552 5551 5550 5548 5546 5544 5543 5542 5540 5538 5537 5535 5534 5533 5532 5531 5529 5528 5527 5525 5524 5522 5522 5521 5520 5519 5518 5517 5516
5567 5565 5564 5561 5559 5558 5560 5557 5554 5553 5552 5552 5549 5548 5546 5545 5545 5544 5541 5539 5538 5536 5534 5533 5531 5530 5528 5526 5525 5524 5522 5521 5519 5517 5516 5514 5513 5512 5511 5510 5509 5508 5507 5506
5561 5559 5557 5554 5552 5551 5552 5550 5548 5547 5547 5544 5542 5540 5539 5538 5537 5536 5534 5532 5530 5529 5527 5525 5524 5522 5520 5519 5517 5515 5514 5512 5511 5509 5507 5505 5503 5502 5501 5501 5500 5499 5498 5497
5554 5552 5550 5548 5546 5548 5545 5542 5541 5540 5538 5536 5535 5533 5532 5531 5530 5528 5526 5525 5523 5521 5520 5518 5517 5515 5513 5511 5509 5508 5506 5504 5502 5500 5498 5497 5495 5494 5493 5492 5491 5490 5489 5488
5547 5546 5543 5542 5542 5540 5537 5535 5534 5532 5531 5529 5528 5527 5525 5524 5523 5521 5519 5518 5516 5514 5512 5511 5509 5508 5506 5504 5502 5500 5498 5496 5494 5492 5490 5488 5487 5485 5484 5484 5483 5482 5481 5480
5541 5539 5536 5535 5535 5533 5530 5528 5527 5525 5524 5522 5521 5519 5518 5517 5515 5514 5512 5510 5509 5507 5505 5504 5502 5501 5499 5497 5495 5493 5491 5489 5487 5485 5483 5481 5479 5478 5477 5476 5476 5475 5474 5473
5533 5530 5529 5527 5527 5525 5524 5522 5520 5518 5517 5515 5514 5512 5510 5509 5508 5506 5505 5503 5501 5500 5498 5496 5495 5493 5492 5490 5488 5485 5483 5481 5479 5477 5475 5474 5472 5471 5470 5469 5469 5468 5468 5467
5526 5524 5522 5521 5520 5518 5517 5515 5513 5511 5510 5508 5507 5505 5503 5501 5500 5498 5497 5496 5494 5492 5491 5489 5488 5486 5484 5482 5480 5478 5476 5474 5472 5471 5469 5467 5466 5465 5464 5463 5463 5463 5463 5462